Location: Unspecified
(0.0000°N, 0.0000°E)
Time: 01:22:34
(UTC+00:00)

Explorer 11/Cluster Stage 4 - Pass Details

Date: 25 November 2019
Orbit: 467 x 1259 km, 28.8° (Epoch: 11 December)

Event Time Altitude Azimuth Distance (km) Brightness Sun altitude
Rises 00:22:58 0° 308° (NW) 3,780 - -67.5°
Reaches altitude 10° 00:25:34 10° 312° (NW) 2,926 - -67.3°
Maximum altitude 00:32:55 63° 31° (NNE) 1,330 - -66.5°
Drops below altitude 10° 00:41:04 10° 111° (ESE) 3,232 - -65.5°
Sets 00:44:04 0° 114° (ESE) 4,195 - -65.0°
